GPS II-9

operational
NORAD ID: 20830 Int'l Des: 1990-088 Owner: AFSSD2 Country: US Constellation: GPS
MEOCIRCULAR

GPS II-9について

説明を読み込み中...

リアルタイム位置

3D地球を読み込み中...

次回通過

高度履歴

Altitude vs Time

uPlot chart will show altitude changes over time

軌道要素

1 20830U 90088A 26059.52180128 -.00000101 00000-0 00000+0 0 9999
2 20830 56.4341 13.5763 0024811 290.5077 245.0619 1.87752698250769
Epoch: Feb 28, 2026 • Age: 93 hours

現在のステータス

高度 21331.5 km
速度 3.80 km/s
衛星直下点 -56.16°S, 179.51°E
打ち上げ日 Oct 1, 1990
運用期間 35.4 years
タイプ navigation

技術仕様

分類 Payload
質量 776.00 kg
乾燥質量 776.00 kg
総質量 1667.00 kg
長さ 2.40 m
直径 1.80 m
スパン 5.30 m
形状 Box + 2 Pan
製造者 RWISB
バスタイプ GPS II
フェーズステータス In Orbit
所有者/国 AFSSD2/US

大規模コンステレーション

Loading constellations...